Погода в Могилеве

Погода в Могилеве : погода сейчас, прогноз погоды и архив. Всё, что Вы хотите узнать о погоде в Могилеве!

Поиск расширенной информации на нашем сайте:

Другие новости

Новости СМИ2

Главная страница сайта

Новости сайта

03.07.2017

Напоминаем, что на нашем специализированном сайте Метеоцентр.Азия вы можете получить высокодетализированные автоматические прогнозы погоды по пунктам России, СНГ и мира в авиационном формате (включающие направление и скорость ветра, видимость, явления погоды, количество и форму облачности, нижнюю и верхнюю границу облачности).


Погода в Могилеве - сегодня

Время (UTC), дата Ветер
(°,м/с) 
Видим.   Явления Облачность Т
(°С)
Тd
(°С)
f(%) Тe
(°С)
Pmin
(гПа)
dP
(гПа)
Po
(мм)
O2
(г/м3)
Тmin Tmax R s Состояние
почвы
09 17.06.18 020 (С) 10 км    8/8 570 м 
[Sc]
+19.1 +15.4 79 +30  1016.3  -0.3  745  277           
12 17.06.18 340 (С) 10 км    8/5 720 м средняя, верхняя 
[Cu hum|Ac trans|Ci fib]
+22 +16.6 71 +34  1015.6  -0.4  745  274           
15 17.06.18 330 (СЗ) 10 км    9/6 1500 м средняя, верхняя 
[Sc|Ac trans|Ci fib]
+21.7 +16.4 72 +33  1015.2  -0.4  745  274           
18 17.06.18 340 (С) 10 км    9/8 1500 м верхняя 
[Sc|Ci fib]
+19.6 +15.9 79 +30  1015.4  745  277    +22.6       
21 17.06.18 310 (СЗ) 10 км    8/3 1000 м верхняя 
[Sc|Ci sp]
+16.3 +15.2 93 +27  1016.2  0.5  745  280           
00 18.06.18 320 (СЗ) 8000 м  дымка  6/3 1000 м верхняя 
[Sc|Ci sp]
+15.4 +14.5 94 +24  1016  -0.3  745  281           
03 18.06.18 тихо ()   6000 м  дымка  6/0 средняя, верхняя 
[Ac trans|Ci sp]
+14.3 +13.5 95 +21  1016  -0.1  745  282           
06 18.06.18 020 (С) 10 км    6/0 средняя 
[Ac trans]
+20 +14.5 71 +28  1015.8  0.3  745  277  +14         
09 18.06.18 340 (С) 12000 м    8/3 600 м верхняя 
[Cu hum|Ci sp]
+23.1 +14.3 58 +31  1016.1  0.5  745  274           
12 18.06.18 360 (С) 15000 м    8/4 600 м верхняя 
[Cu hum|Ci sp]
+25 +14.7 53 +33  1016.2  0.3  746  272           
15 18.06.18 220 (ЮЗ) 15000 м    9/8 960 м кучево-дожд., верхняя 
[Cb calv|Ci sp]
+24.1 +15.3 58 +33  1015.1  -1.2  745  273           
18 18.06.18 150 (ЮВ) 15000 м    8/0 верхняя 
[Ci sp]
+21.7 +16.3 71 +33  1015.1  -0.1  745  274    +25.8       
21 18.06.18 тихо ()   10 км    4/0 верхняя 
[Ci sp]
+16.9 +14.3 85 +25  1015.7  0.2  745  280           
00 19.06.18 250 (З) 10 км    8/0 средняя, верхняя 
[Ac trans|Ci sp]
+16.2 +13.9 86 +24  1015.9  0.1  745  280           
03 19.06.18 280 (З) 8000 м  дымка  9/0 средняя, верхняя 
[Ac trans|Ci sp]
+16.3 +14.2 87 +24  1015.9  745  280           
06 19.06.18 260 (З) 8000 м  сильн. ливневой дождь  9/9 1000 м кучево-дожд., средняя 
[Cb calv|Ac As]
+18 +17.2 95 +32  1016.9  1.1  746  278  +15.1    0.3     
09 19.06.18 260 (З) 10 км  {ливн. осадки}  8/0 средняя 
[Ac trans]
+22.6 +15.6 65 +33  1016  -0.5  745  274      0.0     
12 19.06.18 260 (З) 10 км  {ливн. осадки}  8/6 1200 м средняя, верхняя 
[Cu hum|Ac trans|Ci sp]
+26 +15.1 51 +35  1014.4  -1.3  744  271           
15 19.06.18 270 (З) 10 км    9/3 1000 м кучево-дожд., средняя, верхняя 
[Cb calv|Ac trans|Ci sp]
+23.8 +17.7 69 +38  1013.1  -1.4  743  272      0.0     
18 19.06.18 280 (З) 10 км    9/3 1000 м кучево-дожд., верхняя 
[Cb calv|Ci sp]
+22.1 +16.4 70 +34  1012.9  -0.3  743  273    +26.3  0.0     
21 19.06.18 260 (З) 10 км    8/0 верхняя 
[Ci sp]
+18 +12.8 72 +24  1013.8  0.6  744  279           
00 20.06.18 300 (СЗ) 10 км    8/0 верхняя 
[Ci sp]
+15.5 +11.7 78 +19  1015.4  1.2  744  282           
03 20.06.18 290 (З) 10 км    3/0 верхняя 
[Ci sp]
+13.7 +10.9 83 +16  1016.9  1.4  746  284           
06 20.06.18 260 (З) 12000 м    6/6 800 м 
[Cu hum]
+18.1 +10.6 62 +20  1016.4  -0.2  745  280  +13.4         
09 20.06.18 260 (З) 6{11}  12000 м    6/6 960 м 
[Cu hum]
+20.7 +11.3 55 +24  1016  -0.2  745  277           
Время (UTC), дата Ветер
(°,м/с) 
Видим.   Явления Облачность Т
(°С)
Тd
(°С)
f(%) Тe
(°С)
Pmin
(гПа)
dP
(гПа)
Po
(мм)
O2
(г/м3)
Тmin Tmax R s Состояние
почвы

Для получения пояснительной информации подведите курсор к названию столбца.

ПОГОДА в Могилеве - архив

Всё, что Вы хотите узнать о погоде в Могилеве - удобно и подробно!

Выберите нужную дату (начиная с 1 января 2015* года) и нажмите кнопку "Найти".
Будут отображены архивные сводки погоды по пункту Могилев, начиная с указанной даты.


Отображать данные в формате CSV (для использования в таблицах Excel)


Внимание! Наш архив погоды предназначен исключительно для личного некоммерческого использования в познавательных целях. Если Вам необходимы официальные справки о состоянии погоды (для производственных, юридических, коммерческих и т.п. целей), обращайтесь в органы Росгидромета.

*Примечание: данная дата относится к архиву по метеостанциям СССР (Россия, СНГ, Балтия).
Архив по метеостанциям Зарубежной Европы и Азии (кроме Китая) хранится 10 дней, по другим регионам земного шара (Китай, Африка, Америка, Австралия, Океания) - 1 день.

Могилев - район местоположения метеостанции


Название, широта, долгота, высота метеостанции:
Могилев 53.9°ш. 30.1°д. 192 м над ур. моря [Беларусь]

Дополнительная информация

В oтличие oт бoльшинства пoгoдных сайтoв мы публикуем пoдрoбную метеoинфoрмацию в детальнoм прoфессиoнальнoм фoрмате.

Характеристики температуры и влажнoсти вoздуха измеряются на высoте 2 м в тени вдали oт зданий и деревьев.
Скoрoсть ветра измеряется на высoте 10 м (на урoвне рoста челoвека скoрoсть ветра ниже в 1.5-2 раза). Если метеoстанция нахoдится в гoрoде или в лесу, тo скoрoсть ветра занижена на 2-4 м/с пo сравнению с oткрытым местoм. Скoрoсть ветра над акватoриями крупных рек и oзёр, а также на вершинах хoлмoв на 2-5 м/с выше, чем в oбычных услoвиях.
Атмoсфернoе давление в разных тoчках местнoсти мoжет значительнo oтличаться oт давления на метеoстанции, в зависимoсти oт услoвий рельефа (при пoдъёме на 10 м давление пoнижается примернo на 1 мм рт.ст.).